Location: Buckland
(65.9785°N, 161.1281°W)
Time: 21:52:55
(UTC+00:00)

SPROUT - Pass Details

Date: 17 January 2021
Orbit: 597 x 610 km, 97.9° (Epoch: 07 March)

Event Time Altitude Azimuth Distance (km) Brightness Sun altitude
Exits shadow 03:38:14 - 18° (NNE) 2,288 ? -11.4°
Reaches altitude 10° 03:39:25 10° 6° (N) 1,976 ? -11.6°
Maximum altitude 03:41:47 15° 333° (NNW) 1,685 ? -11.8°
Drops below altitude 10° 03:44:09 10° 299° (WNW) 1,977 ? -12.0°
Sets 03:47:10 0° 276° (W) 2,881 ? -12.3°
